[[{"header":{"parameterUnit":"m.s-1","parameterCategory":1,"la1":30.2991,"la2":30.254,"lo1":-89.0895,"lo2":-89.0444,"dy":0.0017,"dx":0.0017,"nx":28,"ny":28,"refTime":"2024-10-09T03:00:00:Z","depth":0,"parameterNumber":2,"parameterNumberName":"U-component_of_WINDS"},"data":[0,0,0,0,0,0,0,0,0,0,0,0,0,0,0,0,0,0,0,0,0,0,0,0,0,0,0,0,0,0,0,0,0,0,0,0,0,0,0,0,0,0,0,0,0,0,0,0,0,0,0,0,0,0,0,0,0,0,-2.0885,-2.0885,0,-2.0942,-2.0942,-2.0943,-2.0916,-2.0915,-2.0913,-2.0912,-2.0972,-2.0975,-2.0978,0,0,0,0,0,0,0,0,0,0,0,0,0,-2.0754,-2.0757,-2.0885,-2.0886,-2.0886,-2.0942,-2.0942,-2.0943,-2.0916,-2.0915,-2.0913,-2.0911,-2.0971,-2.0975,-2.0978,0,0,0,0,0,0,0,0,0,0,0,0,0,-2.0811,-2.0758,-2.0885,-2.0879,-2.088,-2.0942,-2.0943,-2.0943,-2.0917,-2.0915,-2.0912,-2.091,-2.097,-2.0974,-2.0979,-2.105,0,0,-2.0992,-2.0994,0,0,0,0,0,0,0,0,-2.0808,-2.0816,-2.088,-2.088,-2.088,-2.092,-2.0919,-2.0979,-2.0917,-2.0903,-2.0912,-2.0909,-2.0957,-2.0962,-2.0978,-2.1053,-2.1055,-2.0993,-2.0996,-2.0997,-2.0999,0,0,0,0,0,0,0,-2.0804,-2.0813,-2.0907,-2.0881,-2.0881,-2.0875,-2.088,-2.093,-2.0941,-2.0904,-2.0902,-2.0909,-2.0956,-2.0973,-2.0979,-2.1056,-2.0993,-2.0997,-2.0999,-2.1001,-2.1193,-2.1195,0,0,0,0,0,0,-2.08,-2.081,-2.0906,-2.0909,-2.0838,-2.0879,-2.0885,-2.0909,-2.0941,-2.0943,-2.0911,-2.0908,-2.0967,-2.0974,-2.0981,-2.1067,-2.0997,-2.1002,-2.1004,-2.1191,-2.1194,-2.1196,0,0,0,0,0,0,-2.0797,-2.0809,-2.0903,-2.0859,-2.0871,-2.0883,-2.0911,-2.0911,-2.0928,-2.0946,-2.0948,-2.0926,-2.0965,-2.0975,-2.1033,-2.1069,-2.1004,-2.1008,-2.1188,-2.1191,-2.1195,-2.1239,0,0,0,0,0,0,-2.0794,-2.0808,-2.0835,-2.086,-2.0873,-2.0954,-2.0913,-2.0914,-2.0936,-2.0932,-2.0961,-2.0963,-2.0964,-2.1026,-2.1037,-2.1074,-2.1011,-2.1185,-2.1189,-2.1194,-2.1235,-2.1244,-2.1252,0,0,0,0,0,-2.0789,-2.0845,-2.0836,-2.0848,-2.0907,-2.0956,-2.0964,-2.0963,-2.0939,-2.0966,-2.0977,-2.0962,-2.1062,-2.1033,-2.1045,-2.1083,-2.1182,-2.1188,-2.1193,-2.1231,-2.1242,-2.1252,0,0,0,0,0,0,-2.0825,-2.0849,-2.0839,-2.0905,-2.0929,-2.0952,-2.0986,-2.0975,-2.1007,-2.1002,-2.1001,-2.1007,-2.1068,-2.1081,-2.1047,-2.1153,-2.1119,-2.1127,-2.1143,-2.1154,-2.1162,-2.1159,-2.1015,0,0,0,0,0,-2.084,-2.0878,-2.0896,-2.0953,-2.0965,-2.0974,-2.0995,-2.0992,-2.1017,-2.1028,-2.1043,-2.1068,-2.1105,-2.113,-2.1165,-2.1236,-2.1242,-2.1268,-2.1276,-2.1283,-2.1291,-2.133,-2.1342,-2.1214,-2.1214,-2.1214,0,0,-2.0873,-2.089,-2.0914,-2.096,-2.0979,-2.1018,-2.0982,-2.1026,-2.1055,-2.1034,-2.1091,-2.1103,-2.1131,-2.1196,-2.1225,-2.1208,-2.1327,-2.129,-2.1296,-2.13,-2.1337,-2.1349,-2.136,-2.1218,-2.1217,-2.1217,0,0,-2.0952,-2.0969,-2.1018,-2.1037,-2.1064,-2.107,-2.1081,-2.1106,-2.1113,-2.1169,-2.1154,-2.119,-2.1253,-2.1274,-2.1293,-2.138,-2.1368,-2.1392,-2.1437,-2.1475,-2.1485,-2.1494,-2.1527,-2.1538,-2.1399,-2.1399,-2.1399,0,-2.099,-2.1048,-2.1045,-2.1089,-2.1111,-2.1092,-2.1143,-2.1161,-2.1199,-2.1214,-2.1195,-2.1274,-2.1292,-2.1362,-2.1383,-2.1399,-2.1413,-2.1389,-2.1484,-2.1493,-2.1501,-2.1532,-2.1544,-2.1402,-2.1401,-2.1401,-2.1401,0,-2.1093,-2.1134,-2.117,-2.1207,-2.1232,-2.1279,-2.1284,-2.1309,-2.1304,-2.1312,-2.1369,-2.1389,-2.1429,-2.1444,-2.144,-2.1514,-2.1503,-2.1484,-2.1449,-2.1516,-2.1546,-2.1557,-2.1406,-2.1405,-2.1404,-2.1403,0,0,-2.1199,-2.1232,-2.1246,-2.1262,-2.1291,-2.1323,-2.1369,-2.1407,-2.143,-2.1456,-2.1496,-2.155,-2.1532,-2.1554,-2.1551,-2.1584,-2.1653,-2.1561,-2.1562,-2.1579,-2.1737,-2.1753,-2.1767,-2.1645,-2.1647,-2.1649,-2.1736,0,-2.1281,-2.1362,-2.1361,-2.1436,-2.1474,-2.1457,-2.1497,-2.152,-2.1528,-2.1562,-2.157,-2.1609,-2.1582,-2.1595,-2.1627,-2.1638,-2.1686,-2.1632,-2.1683,-2.1685,-2.1678,-2.1782,-2.1798,-2.188,-2.1747,-2.1749,-2.175,0,-2.1389,-2.1419,-2.1499,-2.1522,-2.1538,-2.1574,-2.1609,-2.1641,-2.1666,-2.1669,-2.1693,-2.1685,-2.1733,-2.1696,-2.1762,-2.1726,-2.1746,-2.1755,-2.1758,-2.1764,-2.1723,-2.1792,-2.1905,-2.1918,-2.1768,-2.1766,-2.1765,0,-2.146,-2.152,-2.1575,-2.159,-2.1618,-2.1644,-2.1657,-2.168,-2.1703,-2.1733,-2.1748,-2.1783,-2.1803,-2.1831,-2.1833,-2.1806,-2.1901,-2.1863,-2.1906,-2.1906,-2.1928,-2.1927,-2.2048,-2.1939,-2.1938,-2.1938,-2.1938,0,-2.1554,-2.1604,-2.1608,-2.1642,-2.1697,-2.1694,-2.1749,-2.1759,-2.178,-2.1816,-2.1803,-2.1838,-2.1838,-2.1873,-2.1875,-2.1931,-2.1939,-2.1944,-2.1944,-2.1946,-2.1946,-2.1961,-2.1956,-2.1941,-2.1941,-2.194,-2.194,0,-2.1644,-2.1648,-2.1707,-2.1729,-2.1735,-2.1775,-2.1794,-2.1827,-2.1833,-2.1879,-2.189,-2.19,-2.1941,-2.1945,-2.1993,-2.1995,-2.2062,-2.2055,-2.2054,-2.2053,-2.2096,-2.2093,-2.2232,-2.2251,-2.2128,-2.2129,-2.213,0,-2.1704,-2.1742,-2.1767,-2.1791,-2.1805,-2.1843,-2.1866,-2.1864,-2.1889,-2.192,-2.1949,-2.1989,-2.202,-2.2087,-2.2099,-2.2135,-2.2131,-2.2177,-2.2136,-2.2137,-2.2133,-2.2132,-2.2136,-2.2186,-2.2187,-2.2188,-2.2189,0,-2.1812,-2.1812,-2.1845,-2.188,-2.1908,-2.1935,-2.196,-2.198,-2.1981,-2.201,-2.2051,-2.2076,-2.2124,-2.2164,-2.22,-2.2214,-2.2203,-2.2201,-2.2213,-2.2217,-2.2215,-2.2218,-2.2077,-2.2199,-2.2198,-2.2197,-2.2196,-2.2196,-2.189,-2.1923,-2.1946,-2.1984,-2.2003,-2.2026,-2.2059,-2.2068,-2.2103,-2.2142,-2.2138,-2.2185,-2.2209,-2.2256,-2.2272,-2.2309,-2.2294,-2.2311,-2.2315,-2.232,-2.2325,-2.2207,-2.2315,-2.2315,-2.2315,-2.2314,-2.2314,0,-2.1998,-2.2012,-2.2047,-2.2083,-2.2112,-2.2097,-2.2124,-2.2151,-2.2191,-2.2214,-2.2246,-2.2294,-2.2332,-2.2346,-2.2384,-2.2411,-2.2406,-2.2421,-2.242,-2.2424,-2.2336,-2.2323,-2.2424,-2.2424,-2.2424,-2.2424,-2.2424,-2.2424,-2.2059,-2.2114,-2.2117,-2.2181,-2.2194,-2.2239,-2.2256,-2.2279,-2.2297,-2.2351,-2.2383,-2.2391,-2.2411,-2.245,-2.2485,-2.2488,-2.2504,-2.2521,-2.2522,-2.2441,-2.243,-2.2419,-2.2406,-2.2524,-2.2524,-2.2607,-2.2607,-2.2608]},{"header":{"parameterUnit":"m.s-1","parameterCategory":1,"la1":30.2991,"la2":30.254,"lo1":-89.0895,"lo2":-89.0444,"dy":0.0017,"dx":0.0017,"nx":28,"ny":28,"refTime":"2024-10-09T03:00:00:Z","depth":0,"parameterNumber":3,"parameterNumberName":"V-component_of_WINDS"},"data":[0,0,0,0,0,0,0,0,0,0,0,0,0,0,0,0,0,0,0,0,0,0,0,0,0,0,0,0,0,0,0,0,0,0,0,0,0,0,0,0,0,0,0,0,0,0,0,0,0,0,0,0,0,0,0,0,0,0,-4.5112,-4.5112,0,-4.5131,-4.5131,-4.5132,-4.5059,-4.5056,-4.5054,-4.5052,-4.5069,-4.5071,-4.5074,0,0,0,0,0,0,0,0,0,0,0,0,0,-4.5009,-4.5011,-4.5112,-4.5112,-4.5112,-4.5131,-4.5131,-4.5132,-4.5059,-4.5056,-4.5054,-4.5051,-4.5068,-4.5071,-4.5074,0,0,0,0,0,0,0,0,0,0,0,0,0,-4.5044,-4.5012,-4.5112,-4.5078,-4.5076,-4.5131,-4.5131,-4.5132,-4.506,-4.5056,-4.5053,-4.505,-4.5067,-4.5071,-4.5074,-4.5162,0,0,-4.5086,-4.5087,0,0,0,0,0,0,0,0,-4.5042,-4.5047,-4.5083,-4.5081,-4.5078,-4.5089,-4.5101,-4.5142,-4.506,-4.5066,-4.5052,-4.5048,-4.5078,-4.5081,-4.5091,-4.5163,-4.5164,-4.5086,-4.5088,-4.509,-4.5091,0,0,0,0,0,0,0,-4.5039,-4.5046,-4.5119,-4.5084,-4.5081,-4.5061,-4.5063,-4.5109,-4.509,-4.5065,-4.506,-4.5063,-4.5076,-4.5088,-4.5091,-4.5164,-4.5086,-4.5089,-4.5092,-4.5093,-4.5309,-4.5312,0,0,0,0,0,0,-4.5042,-4.5045,-4.5119,-4.512,-4.5052,-4.5066,-4.5067,-4.5089,-4.5089,-4.5086,-4.5066,-4.506,-4.5083,-4.5087,-4.5092,-4.5195,-4.509,-4.5093,-4.5095,-4.5305,-4.5309,-4.5313,0,0,0,0,0,0,-4.504,-4.5049,-4.5118,-4.5081,-4.5088,-4.5071,-4.5096,-4.5091,-4.5103,-4.509,-4.5086,-4.5082,-4.5081,-4.5086,-4.5145,-4.5194,-4.5095,-4.5098,-4.5301,-4.5306,-4.5311,-4.5402,0,0,0,0,0,0,-4.5037,-4.5049,-4.5083,-4.5082,-4.5091,-4.5173,-4.5099,-4.5094,-4.511,-4.5102,-4.5104,-4.5101,-4.5079,-4.514,-4.5149,-4.5198,-4.5101,-4.5296,-4.5303,-4.531,-4.5394,-4.5409,-4.5422,0,0,0,0,0,-4.5034,-4.5107,-4.5085,-4.5094,-4.5133,-4.5176,-4.518,-4.5154,-4.5114,-4.5147,-4.5139,-4.5101,-4.5187,-4.5147,-4.5156,-4.5207,-4.5293,-4.5301,-4.5309,-4.5388,-4.5406,-4.5422,0,0,0,0,0,0,-4.5112,-4.5106,-4.5082,-4.5157,-4.5168,-4.5163,-4.5205,-4.5175,-4.5196,-4.5188,-4.5153,-4.5154,-4.522,-4.5219,-4.5174,-4.5292,-4.5233,-4.5243,-4.529,-4.5307,-4.5321,-4.532,-4.5104,0,0,0,0,0,-4.5138,-4.5175,-4.5167,-4.5234,-4.524,-4.5222,-4.524,-4.5219,-4.5228,-4.5232,-4.5228,-4.5238,-4.5267,-4.5287,-4.5313,-4.5393,-4.5393,-4.5433,-4.5447,-4.5458,-4.5468,-4.551,-4.5528,-4.5339,-4.5339,-4.5339,0,0,-4.5192,-4.5193,-4.5218,-4.525,-4.5255,-4.5293,-4.5226,-4.5269,-4.5296,-4.5238,-4.5294,-4.5292,-4.53,-4.537,-4.5401,-4.5372,-4.552,-4.5468,-4.5478,-4.5481,-4.552,-4.5538,-4.5554,-4.5344,-4.5343,-4.5343,0,0,-4.531,-4.5315,-4.5371,-4.5379,-4.5389,-4.5376,-4.539,-4.5391,-4.5387,-4.5443,-4.54,-4.5432,-4.5483,-4.5491,-4.5502,-4.5624,-4.559,-4.5633,-4.5707,-4.5749,-4.5764,-4.5777,-4.5821,-4.5837,-4.5642,-4.5643,-4.5643,0,-4.5376,-4.5432,-4.5404,-4.545,-4.5465,-4.5415,-4.5472,-4.548,-4.5498,-4.5509,-4.5476,-4.554,-4.5542,-4.5614,-4.5644,-4.5654,-4.5668,-4.5633,-4.5764,-4.5777,-4.5789,-4.583,-4.5847,-4.5648,-4.5647,-4.5647,-4.5646,0,-4.5512,-4.5552,-4.5596,-4.5617,-4.5636,-4.5688,-4.5667,-4.569,-4.5667,-4.5658,-4.5715,-4.5716,-4.5742,-4.5757,-4.5735,-4.5826,-4.5808,-4.577,-4.5711,-4.5813,-4.5851,-4.5867,-4.5656,-4.5654,-4.5652,-4.5651,0,0,-4.568,-4.5685,-4.5702,-4.5711,-4.5718,-4.5748,-4.5797,-4.5823,-4.5844,-4.5858,-4.5898,-4.5943,-4.5908,-4.592,-4.5898,-4.5935,-4.6033,-4.5893,-4.5892,-4.5919,-4.6134,-4.6163,-4.6182,-4.601,-4.6013,-4.6015,-4.6133,0,-4.5797,-4.5882,-4.5858,-4.5942,-4.5979,-4.5932,-4.5974,-4.5983,-4.5976,-4.6005,-4.5996,-4.6029,-4.598,-4.5987,-4.6022,-4.6014,-4.6075,-4.6005,-4.6046,-4.6048,-4.6047,-4.6202,-4.6232,-4.6344,-4.6148,-4.615,-4.6152,0,-4.5944,-4.5966,-4.6055,-4.6057,-4.6071,-4.611,-4.6133,-4.6161,-4.617,-4.6162,-4.6176,-4.6147,-4.6194,-4.6135,-4.6199,-4.6152,-4.6167,-4.6166,-4.6169,-4.6173,-4.6107,-4.621,-4.6379,-4.6396,-4.6176,-4.6174,-4.6172,0,-4.6059,-4.6109,-4.6169,-4.6178,-4.6182,-4.6211,-4.6214,-4.6219,-4.6237,-4.6256,-4.6267,-4.6292,-4.6305,-4.6324,-4.6302,-4.6261,-4.637,-4.6308,-4.6364,-4.6365,-4.639,-4.6389,-4.6565,-4.6399,-4.6399,-4.6399,-4.6398,0,-4.6192,-4.6248,-4.6221,-4.6258,-4.632,-4.6291,-4.6353,-4.635,-4.6356,-4.6391,-4.6351,-4.6384,-4.6352,-4.6383,-4.6366,-4.6422,-4.6428,-4.6423,-4.6417,-4.6427,-4.6428,-4.6437,-4.6429,-4.6403,-4.6402,-4.6401,-4.64,0,-4.6331,-4.6315,-4.6377,-4.6376,-4.6377,-4.6423,-4.6422,-4.6455,-4.6445,-4.649,-4.6499,-4.6482,-4.6516,-4.6496,-4.653,-4.6518,-4.6592,-4.6576,-4.659,-4.6586,-4.6643,-4.6638,-4.6832,-4.6856,-4.6674,-4.6676,-4.6677,0,-4.6417,-4.646,-4.6464,-4.6485,-4.6491,-4.6526,-4.6544,-4.6517,-4.6537,-4.6551,-4.6583,-4.6614,-4.6637,-4.6693,-4.6684,-4.671,-4.6694,-4.676,-4.6698,-4.6706,-4.6696,-4.6694,-4.6699,-4.6773,-4.6775,-4.6777,-4.6778,0,-4.6572,-4.6563,-4.6591,-4.6618,-4.6641,-4.666,-4.6675,-4.6694,-4.6668,-4.6692,-4.6727,-4.6746,-4.6781,-4.6812,-4.6834,-4.6835,-4.6803,-4.6798,-4.6812,-4.6823,-4.6829,-4.6827,-4.6625,-4.6794,-4.6792,-4.6791,-4.679,-4.679,-4.6688,-4.6724,-4.6733,-4.6766,-4.6775,-4.6791,-4.6823,-4.6817,-4.6846,-4.6874,-4.6856,-4.6897,-4.6905,-4.6931,-4.6937,-4.6968,-4.6941,-4.6962,-4.6968,-4.6973,-4.6982,-4.6824,-4.6972,-4.6971,-4.6971,-4.6971,-4.697,0,-4.6842,-4.6846,-4.6877,-4.69,-4.6927,-4.6894,-4.691,-4.6933,-4.6971,-4.6981,-4.7005,-4.7045,-4.7075,-4.7069,-4.7095,-4.7122,-4.7107,-4.713,-4.7128,-4.7129,-4.7004,-4.6989,-4.7141,-4.7141,-4.7141,-4.7141,-4.7141,-4.7141,-4.6925,-4.6985,-4.6976,-4.704,-4.7042,-4.7084,-4.7095,-4.7109,-4.7118,-4.7165,-4.719,-4.7186,-4.7189,-4.7216,-4.7242,-4.7239,-4.7251,-4.7279,-4.7271,-4.7154,-4.7138,-4.7121,-4.7107,-4.7282,-4.7282,-4.7393,-4.7394,-4.7395]}]]